EW1379 Weather Reports


Display with metric or nautical units.
time (UTC)temp
F
wind
direction
speed
MPH
gust
MPH
rain 1hr
in
rain 24hr
in
rain mn
in
humidity
%
barometer
mb
20260510112517 48 238 0.0 3.0 0.01 0.12 0.02 84 1012.2
20260510112038 48 238 1.0 3.0 0.01 0.12 0.02 84 1012.0
20260510111524 48 224 0.0 0.0 0.01 0.12 0.02 84 1011.8
20260510111021 48 264 0.0 0.0 0.00 0.11 0.01 84 1011.7
20260510110520 48 263 0.0 0.0 0.00 0.11 0.01 83 1011.4
20260510110024 48 263 0.0 0.0 0.00 0.11 0.01 83 1011.1
20260510105614 48 263 0.0 0.0 0.00 0.11 0.01 83 1011.1
20260510105016 48 263 0.0 0.0 0.00 0.11 0.01 82 1010.9
20260510104544 48 263 0.0 0.0 0.00 0.11 0.01 82 1011.1
20260510104019 48 263 0.0 0.0 0.00 0.11 0.01 82 1011.0
20260510103546 48 267 0.0 3.0 0.00 0.11 0.01 82 1010.8
20260510103041 48 267 1.0 5.0 0.00 0.11 0.01 82 1010.8
20260510102531 48 276 2.0 5.0 0.00 0.11 0.01 83 1010.7
20260510102034 48 261 1.0 3.0 0.00 0.11 0.01 83 1010.8
20260510101604 48 313 0.0 0.0 0.00 0.11 0.01 82 1010.5
20260510101043 48 313 0.0 0.0 0.01 0.11 0.01 81 1010.5
20260510100515 48 313 0.0 0.0 0.01 0.11 0.01 81 1010.2
20260510100018 48 313 0.0 0.0 0.01 0.11 0.01 80 1009.9
20260510095516 48 315 0.0 0.0 0.01 0.11 0.01 79 1010.1
20260510095031 48 315 0.0 0.0 0.01 0.11 0.01 80 1010.1
20260510094557 49 315 0.0 0.0 0.01 0.11 0.01 79 1010.0
20260510094052 49 315 0.0 2.0 0.01 0.11 0.01 79 1009.9
20260510093522 49 315 0.0 5.0 0.01 0.11 0.01 79 1009.9
20260510093032 49 324 1.0 9.0 0.01 0.11 0.01 78 1009.8
20260510092521 50 308 3.0 9.0 0.01 0.11 0.01 78 1009.7
20260510092036 50 294 3.0 10.0 0.01 0.11 0.01 81 1009.7
20260510091523 51 344 4.0 10.0 0.01 0.11 0.01 83 1009.8
20260510091046 52 296 3.0 8.0 0.00 0.10 0.00 85 1009.8
20260510090543 52 314 3.0 6.0 0.00 0.10 0.00 86 1009.4
20260510090029 52 300 3.0 5.0 0.00 0.10 0.00 87 1009.2
20260510085516 52 269 2.0 5.0 0.00 0.10 0.00 87 1009.1
20260510085021 52 302 2.0 5.0 0.00 0.10 0.00 87 1009.0
20260510084550 52 294 0.0 3.0 0.00 0.10 0.00 87 1008.8
20260510084022 52 292 1.0 5.0 0.00 0.10 0.00 87 1008.9
20260510083516 52 297 1.0 5.0 0.00 0.10 0.00 88 1009.0
20260510083026 52 313 2.0 5.0 0.00 0.10 0.00 88 1008.9
20260510082521 52 273 1.0 3.0 0.00 0.10 0.00 88 1008.8
20260510082026 52 269 0.0 0.0 0.00 0.10 0.00 88 1008.7
20260510081521 53 269 0.0 3.0 0.00 0.10 0.00 88 1008.5
20260510081030 53 269 0.0 3.0 0.00 0.10 0.00 88 1008.4
20260510080532 53 269 0.0 0.0 0.00 0.10 0.00 89 1008.4
20260510080043 53 269 0.0 4.0 0.00 0.10 0.00 89 1008.4
20260510075528 53 269 0.0 4.0 0.00 0.10 0.00 89 1008.5
20260510075033 52 261 1.0 5.0 0.00 0.10 0.00 89 1008.4
20260510074535 52 310 1.0 7.0 0.00 0.10 0.00 89 1008.3
20260510074016 52 333 3.0 7.0 0.00 0.10 0.00 90 1008.3
20260510073539 52 257 2.0 4.0 0.00 0.10 0.00 90 1008.2
20260510073038 52 294 0.0 0.0 0.00 0.10 0.00 90 1008.4
20260510072520 52 294 0.0 1.0 0.00 0.10 0.00 89 1008.2
20260510072027 52 298 0.0 1.0 0.00 0.10 0.00 89 1008.1
20260510071518 52 298 0.0 2.0 0.00 0.10 0.00 89 1007.9
20260510071047 52 298 0.0 2.0 0.00 0.10 0.00 89 1007.8
20260510070521 52 298 0.0 2.0 0.00 0.10 0.00 89 1007.8
20260510070014 52 297 0.0 2.0 0.00 0.10 0.00 89 1007.9
20260510065521 52 328 0.0 7.0 0.00 0.10 0.00 89 1007.6
20260510065034 52 335 2.0 7.0 0.00 0.10 0.00 89 1007.6
20260510064536 52 329 0.0 0.0 0.00 0.10 0.00 89 1007.6
20260510064033 52 196 0.0 0.0 0.00 0.10 0.00 89 1007.5
20260510063544 52 196 0.0 0.0 0.00 0.10 0.00 89 1007.4
20260510063042 51 196 0.0 0.0 0.00 0.10 0.00 89 1007.5
20260510062530 51 196 0.0 0.0 0.00 0.10 0.00 89 1007.5
20260510062015 51 196 0.0 0.0 0.00 0.10 0.00 89 1007.3
20260510061539 51 196 0.0 0.0 0.00 0.10 0.00 89 1007.4
20260510061017 51 196 0.0 0.0 0.00 0.10 0.00 89 1007.3
20260510060538 51 196 0.0 0.0 0.00 0.10 0.00 89 1007.2
20260510060038 51 196 0.0 0.0 0.00 0.10 0.00 89 1007.1
20260510055526 51 196 0.0 0.0 0.00 0.10 0.00 89 1007.2
20260510055052 51 196 0.0 0.0 0.00 0.10 0.00 89 1007.1
20260510054528 51 196 0.0 0.0 0.00 0.10 0.00 89 1007.0
20260510054054 51 196 0.0 0.0 0.00 0.10 0.00 89 1007.2
20260510053524 51 196 0.0 0.0 0.00 0.10 0.00 89 1007.1
20260510053030 51 196 0.0 0.0 0.00 0.10 0.00 89 1007.1
20260510052512 51 196 0.0 0.0 0.00 0.10 0.00 89 1007.0
20260510052012 51 196 0.0 0.0 0.00 0.10 0.00 89 1006.9
20260510051549 51 196 0.0 2.0 0.00 0.10 0.00 89 1007.1
20260510051015 51 196 0.0 3.0 0.00 0.10 0.00 90 1007.1
20260510050538 51 196 2.0 3.0 0.00 0.10 0.00 90 1007.1
20260510050040 51 196 2.0 3.0 0.00 0.10 0.00 90 1007.1
20260510045531 51 196 0.0 0.0 0.00 0.10 0.00 89 1007.1
20260510045020 51 196 0.0 0.0 0.00 0.10 0.00 89 1007.1
20260510044540 51 196 0.0 0.0 0.00 0.10 0.00 89 1006.9
20260510044033 51 196 0.0 0.0 0.00 0.10 0.00 88 1006.9
20260510043537 51 196 0.0 0.0 0.00 0.10 0.00 88 1006.9
20260510043108 51 196 0.0 0.0 0.00 0.10 0.00 88 1006.9
20260510042522 51 196 0.0 0.0 0.00 0.10 0.00 88 1006.8
20260510042035 51 196 0.0 0.0 0.00 0.10 0.00 88 1006.8
20260510041516 51 196 0.0 0.0 0.00 0.10 0.00 88 1007.0
20260510041040 52 196 0.0 0.0 0.00 0.10 0.00 87 1006.9
20260510040525 52 196 0.0 0.0 0.00 0.10 0.00 87 1006.7
20260510040018 52 196 0.0 0.0 0.00 0.10 0.10 86 1006.6
20260510035541 52 196 0.0 0.0 0.00 0.10 0.10 86 1006.7
20260510035016 53 196 0.0 0.0 0.00 0.10 0.10 87 1006.6
20260510034515 53 196 0.0 0.0 0.00 0.10 0.10 87 1006.3
20260510034023 53 196 0.0 0.0 0.00 0.10 0.10 87 1006.2
20260510033517 53 196 0.0 0.0 0.00 0.10 0.10 86 1006.0
20260510033031 53 196 0.0 0.0 0.00 0.10 0.10 86 1006.0
20260510032525 53 196 0.0 2.0 0.00 0.10 0.10 87 1006.0
20260510032027 53 196 0.0 4.0 0.00 0.10 0.10 87 1006.1
20260510031534 53 196 3.0 4.0 0.00 0.10 0.10 87 1006.1
20260510031050 53 196 0.0 4.0 0.00 0.10 0.10 87 1006.0
20260510030516 54 196 2.0 5.0 0.00 0.10 0.10 87 1006.0
20260510030034 54 196 3.0 5.0 0.00 0.10 0.10 87 1005.9
20260510025519 54 193 3.0 5.0 0.00 0.10 0.10 87 1005.9
20260510025030 54 196 3.0 5.0 0.00 0.10 0.10 87 1005.9
20260510024541 54 196 2.0 4.0 0.00 0.10 0.10 87 1005.9
20260510024044 54 195 3.0 6.0 0.00 0.10 0.10 88 1005.8
20260510023520 54 198 3.0 7.0 0.01 0.10 0.10 88 1005.7
20260510023050 54 195 3.0 7.0 0.02 0.10 0.10 88 1005.6
20260510022557 54 192 2.0 4.0 0.02 0.10 0.10 88 1005.7
20260510022034 54 190 1.0 5.0 0.03 0.10 0.10 88 1005.7
20260510021540 54 194 3.0 7.0 0.05 0.10 0.10 88 1005.5
20260510021018 54 184 3.0 7.0 0.06 0.10 0.10 88 1005.6
20260510020528 54 188 4.0 9.0 0.06 0.10 0.10 88 1005.6
20260510020025 54 198 4.0 8.0 0.08 0.10 0.10 88 1005.8
20260510015543 54 205 5.0 8.0 0.09 0.10 0.10 88 1005.8
20260510015031 54 187 2.0 8.0 0.10 0.10 0.10 88 1006.0
20260510014519 54 201 5.0 8.0 0.10 0.10 0.10 87 1005.9
20260510014038 54 192 3.0 5.0 0.10 0.10 0.10 87 1006.0
20260510013529 54 186 1.0 6.0 0.09 0.09 0.09 87 1006.0
20260510013038 54 186 2.0 6.0 0.08 0.08 0.08 86 1006.0
20260510012526 54 234 3.0 7.0 0.07 0.07 0.07 86 1006.1
20260510012016 55 238 3.0 8.0 0.06 0.06 0.06 85 1006.2
20260510011531 55 188 4.0 10.0 0.05 0.05 0.05 84 1006.3
20260510011039 56 257 4.0 10.0 0.04 0.04 0.04 84 1006.2
20260510010539 56 248 3.0 13.0 0.04 0.04 0.04 82 1006.2
20260510010050 57 252 6.0 17.0 0.02 0.02 0.02 80 1006.2
20260510005553 59 261 5.0 17.0 0.01 0.01 0.01 76 1006.1
20260510005053 61 247 7.0 17.0 0.00 0.00 0.00 71 1005.8
20260510004524 62 315 8.0 15.0 0.00 0.00 0.00 66 1004.5
20260510004031 63 144 0.0 4.0 0.00 0.00 0.00 63 1003.8
20260510003536 63 144 2.0 4.0 0.00 0.00 0.00 63 1003.6
20260510003017 63 167 0.0 2.0 0.00 0.00 0.00 63 1003.7
20260510002541 63 167 0.0 2.0 0.00 0.00 0.00 62 1003.8
20260510002105 64 167 0.0 0.0 0.00 0.00 0.00 61 1003.7
20260510001517 64 168 0.0 0.0 0.00 0.00 0.00 62 1003.7
20260510001046 64 168 0.0 0.0 0.00 0.00 0.00 61 1003.8
20260510000516 64 168 0.0 0.0 0.00 0.00 0.00 61 1003.7
20260510000016 64 168 0.0 0.0 0.00 0.00 0.00 60 1003.5
20260509235525 64 168 0.0 0.0 0.00 0.00 0.00 60 1003.4
20260509235040 65 168 0.0 2.0 0.00 0.00 0.00 60 1003.4
20260509234517 65 168 0.0 4.0 0.00 0.00 0.00 59 1003.4
20260509234042 65 168 2.0 4.0 0.00 0.00 0.00 59 1003.4
20260509233557 65 165 0.0 3.0 0.00 0.00 0.00 59 1003.4
20260509233025 65 165 0.0 4.0 0.00 0.00 0.00 58 1003.3
20260509232536 65 165 2.0 4.0 0.00 0.00 0.00 58 1003.2
20260509232030 65 199 3.0 4.0 0.00 0.00 0.00 57 1003.2
20260509231536 65 199 2.0 5.0 0.00 0.00 0.00 58 1003.2
20260509231019 65 199 3.0 5.0 0.00 0.00 0.00 57 1003.4
20260509230531 66 211 3.0 5.0 0.00 0.00 0.00 57 1003.4
20260509230027 66 187 2.0 4.0 0.00 0.00 0.00 57 1003.4
20260509225535 66 196 3.0 7.0 0.00 0.00 0.00 57 1003.5
20260509225058 66 198 4.0 7.0 0.00 0.00 0.00 56 1003.5
20260509224606 66 186 1.0 4.0 0.00 0.00 0.00 57 1003.5
20260509224044 66 186 2.0 6.0 0.00 0.00 0.00 56 1003.6
20260509223533 66 193 3.0 5.0 0.00 0.00 0.00 56 1003.5
20260509223059 66 189 3.0 5.0 0.00 0.00 0.00 57 1003.5
20260509222526 66 178 3.0 6.0 0.00 0.00 0.00 57 1003.5
20260509222017 67 209 4.0 9.0 0.00 0.00 0.00 56 1003.5
20260509221547 67 202 5.0 9.0 0.00 0.00 0.00 54 1003.4
20260509221031 67 189 5.0 8.0 0.00 0.00 0.00 55 1003.3
20260509220527 68 194 3.0 7.0 0.00 0.00 0.00 56 1003.3
20260509220054 67 205 3.0 8.0 0.00 0.00 0.00 55 1003.3
20260509215547 68 193 4.0 8.0 0.00 0.00 0.00 54 1003.4
20260509215018 68 218 3.0 10.0 0.00 0.00 0.00 57 1003.4
20260509214518 68 190 4.0 7.0 0.00 0.00 0.00 56 1003.4
20260509214045 68 188 4.0 9.0 0.00 0.00 0.00 57 1003.5
20260509213530 68 195 5.0 10.0 0.00 0.00 0.00 54 1003.5
20260509213020 68 184 4.0 10.0 0.00 0.00 0.00 56 1003.4
20260509212528 68 199 6.0 8.0 0.00 0.00 0.00 55 1003.4
20260509212022 68 187 2.0 7.0 0.00 0.00 0.00 57 1003.3
20260509211532 68 200 4.0 7.0 0.00 0.00 0.00 56 1003.2
20260509211035 67 178 2.0 7.0 0.00 0.00 0.00 60 1003.3
20260509210524 67 188 3.0 9.0 0.00 0.00 0.00 59 1003.4
20260509210019 67 180 4.0 9.0 0.00 0.00 0.00 60 1003.4
20260509205550 67 172 5.0 8.0 0.00 0.00 0.00 59 1003.5
20260509205037 66 188 4.0 7.0 0.00 0.00 0.00 54 1003.6
20260509204530 67 192 4.0 11.0 0.00 0.00 0.00 53 1003.5
20260509204043 67 202 6.0 11.0 0.00 0.00 0.00 53 1003.6
20260509203518 67 165 4.0 7.0 0.00 0.00 0.00 52 1003.6
20260509203049 68 186 3.0 9.0 0.00 0.00 0.00 54 1003.6
20260509202520 68 160 6.0 9.0 0.00 0.00 0.00 52 1003.6
20260509202023 68 202 5.0 8.0 0.00 0.00 0.00 53 1003.7
20260509201528 68 194 4.0 7.0 0.00 0.00 0.00 53 1003.9
20260509201022 68 196 4.0 7.0 0.00 0.00 0.00 54 1003.9
20260509200542 68 191 4.0 7.0 0.00 0.00 0.00 52 1003.9
20260509200019 68 172 3.0 7.0 0.00 0.00 0.00 55 1003.9
20260509195522 68 181 4.0 7.0 0.00 0.00 0.00 58 1003.9
20260509195018 67 182 3.0 7.0 0.00 0.00 0.00 57 1003.9
20260509194535 67 195 2.0 7.0 0.00 0.00 0.00 56 1003.8
20260509194019 68 214 4.0 8.0 0.00 0.00 0.00 55 1004.1
20260509193514 68 198 5.0 10.0 0.00 0.00 0.00 54 1004.1
20260509193034 67 195 3.0 10.0 0.00 0.00 0.00 55 1004.0
20260509192546 67 234 3.0 8.0 0.00 0.00 0.00 55 1004.1
20260509192044 66 198 3.0 8.0 0.00 0.00 0.00 55 1004.3
20260509191520 66 178 4.0 10.0 0.00 0.00 0.00 56 1004.4
20260509191017 66 234 5.0 10.0 0.00 0.00 0.00 57 1004.4
20260509190518 65 182 4.0 8.0 0.00 0.00 0.00 58 1004.5
20260509190013 66 195 5.0 8.0 0.00 0.00 0.00 58 1004.5
20260509185523 66 200 3.0 7.0 0.00 0.00 0.00 62 1004.5
20260509185017 66 161 3.0 8.0 0.00 0.00 0.00 60 1004.7
20260509184527 66 192 5.0 8.0 0.00 0.00 0.00 61 1004.9
20260509184039 66 196 4.0 7.0 0.00 0.00 0.00 61 1004.9
20260509183555 66 198 3.0 7.0 0.00 0.00 0.00 65 1005.0
20260509183042 65 145 4.0 9.0 0.00 0.00 0.00 65 1005.1
20260509182523 65 205 3.0 8.0 0.00 0.00 0.00 64 1005.2
20260509182017 66 193 6.0 8.0 0.00 0.00 0.00 62 1005.3
20260509181524 65 207 4.0 8.0 0.00 0.00 0.00 65 1005.2
20260509181019 65 188 5.0 8.0 0.00 0.00 0.00 65 1005.2
20260509180553 65 192 2.0 7.0 0.00 0.00 0.00 64 1005.3
20260509180045 65 169 3.0 7.0 0.00 0.00 0.00 66 1005.4
20260509175517 65 190 5.0 7.0 0.00 0.00 0.00 65 1005.4
20260509175039 65 185 4.0 7.0 0.00 0.00 0.00 65 1005.4
20260509174517 65 197 4.0 11.0 0.00 0.00 0.00 67 1005.3
20260509174018 65 150 5.0 11.0 0.00 0.00 0.00 67 1005.4
20260509173528 64 167 3.0 7.0 0.00 0.00 0.00 66 1005.3
20260509173026 65 177 3.0 9.0 0.00 0.00 0.00 64 1005.4
20260509172515 65 149 4.0 9.0 0.00 0.00 0.00 65 1005.4
20260509172043 65 181 4.0 10.0 0.00 0.00 0.00 65 1005.4
20260509171517 65 138 3.0 6.0 0.00 0.00 0.00 64 1005.5
20260509171047 65 212 1.0 7.0 0.00 0.00 0.00 68 1005.5
20260509170518 65 161 5.0 7.0 0.00 0.00 0.00 65 1005.6
20260509170018 65 207 2.0 7.0 0.00 0.00 0.00 69 1005.7
20260509165527 64 155 3.0 8.0 0.00 0.00 0.00 67 1005.8
20260509165043 64 159 4.0 8.0 0.00 0.00 0.00 67 1005.8
20260509164526 64 189 3.0 6.0 0.00 0.00 0.00 68 1005.9
20260509164026 64 165 3.0 10.0 0.00 0.00 0.00 68 1006.0
20260509163533 63 130 4.0 10.0 0.00 0.00 0.00 70 1006.0
20260509163024 63 165 4.0 9.0 0.00 0.00 0.00 70 1006.1
20260509162552 62 169 3.0 5.0 0.00 0.00 0.00 70 1006.2
20260509162057 62 180 3.0 6.0 0.00 0.00 0.00 69 1006.2
20260509161530 62 169 3.0 6.0 0.00 0.00 0.00 70 1006.3
20260509161019 62 161 3.0 5.0 0.00 0.00 0.00 71 1006.3
20260509160539 61 182 2.0 4.0 0.00 0.00 0.00 69 1006.4
20260509160018 61 171 1.0 5.0 0.00 0.00 0.00 69 1006.5
20260509155603 62 152 2.0 5.0 0.00 0.00 0.00 70 1006.4
20260509155039 62 182 2.0 5.0 0.00 0.00 0.00 69 1006.4
20260509154516 62 184 3.0 5.0 0.00 0.00 0.00 69 1006.5
20260509154041 62 173 0.0 7.0 0.00 0.00 0.00 70 1006.5
20260509153518 61 202 3.0 7.0 0.00 0.00 0.00 70 1006.5
20260509153018 61 168 1.0 6.0 0.00 0.00 0.00 72 1006.5
20260509152525 61 137 2.0 6.0 0.00 0.00 0.00 71 1006.6
20260509152032 61 134 2.0 6.0 0.00 0.00 0.00 70 1006.6
20260509151544 61 160 2.0 6.0 0.00 0.00 0.00 71 1006.7
20260509151019 61 156 2.0 7.0 0.00 0.00 0.00 71 1006.7
20260509150544 61 96 4.0 7.0 0.00 0.00 0.00 69 1006.7
20260509150026 61 167 1.0 7.0 0.00 0.00 0.00 72 1006.7
20260509145517 61 104 4.0 7.0 0.00 0.00 0.00 72 1006.8
20260509145023 61 197 1.0 7.0 0.00 0.00 0.00 71 1006.8
20260509144517 61 121 3.0 7.0 0.00 0.00 0.00 71 1006.9
20260509144020 61 120 1.0 8.0 0.00 0.00 0.00 71 1007.0
20260509143518 60 155 4.0 8.0 0.00 0.00 0.00 73 1007.1
20260509143024 60 116 1.0 7.0 0.00 0.00 0.00 71 1007.1
20260509142542 60 133 2.0 7.0 0.00 0.00 0.00 73 1007.0
20260509142023 60 129 3.0 6.0 0.00 0.00 0.00 74 1007.0
20260509141541 59 192 3.0 5.0 0.00 0.00 0.00 73 1007.0
20260509141044 59 140 1.0 6.0 0.00 0.00 0.00 75 1007.0
20260509140542 59 141 2.0 6.0 0.00 0.00 0.00 73 1007.1
20260509140030 58 159 2.0 4.0 0.00 0.00 0.00 75 1007.2
20260509135523 58 154 3.0 5.0 0.00 0.01 0.00 75 1007.3
20260509135032 58 153 2.0 6.0 0.00 0.01 0.00 77 1007.4
20260509134523 57 134 3.0 6.0 0.00 0.01 0.00 77 1007.4
20260509134033 57 115 3.0 7.0 0.00 0.01 0.00 77 1007.4
20260509133522 56 138 3.0 5.0 0.00 0.01 0.00 79 1007.5
20260509133032 56 143 0.0 6.0 0.00 0.01 0.00 80 1007.6
20260509132602 55 143 2.0 6.0 0.00 0.01 0.00 81 1007.6
20260509132028 54 139 1.0 6.0 0.00 0.01 0.00 81 1007.7
20260509131534 54 140 3.0 6.0 0.00 0.01 0.00 81 1007.8
20260509131107 53 138 0.0 6.0 0.00 0.01 0.00 81 1007.8
20260509130516 53 138 2.0 6.0 0.00 0.01 0.00 81 1007.9
20260509130017 52 124 3.0 8.0 0.00 0.03 0.00 82 1007.9
20260509125527 52 123 3.0 6.0 0.00 0.03 0.00 82 1007.9
20260509125024 52 132 2.0 6.0 0.00 0.03 0.00 82 1008.0
20260509124530 51 131 2.0 6.0 0.00 0.03 0.00 83 1007.9
20260509124033 51 134 3.0 6.0 0.00 0.03 0.00 82 1007.9
20260509123544 51 134 1.0 4.0 0.00 0.03 0.00 82 1007.9
20260509123017 50 137 2.0 5.0 0.00 0.03 0.00 83 1008.0
20260509122547 50 134 3.0 5.0 0.00 0.03 0.00 83 1008.0
20260509122018 49 132 3.0 5.0 0.00 0.03 0.00 84 1008.0
20260509121522 49 120 2.0 4.0 0.00 0.03 0.00 85 1008.1
20260509121031 48 125 1.0 5.0 0.00 0.03 0.00 86 1008.1
20260509120537 48 129 2.0 5.0 0.00 0.03 0.00 86 1008.1
20260509120021 47 136 2.0 6.0 0.00 0.03 0.00 86 1008.1
20260509115533 46 135 3.0 5.0 0.00 0.03 0.00 86 1008.0
20260509115047 46 137 2.0 5.0 0.00 0.03 0.00 86 1008.1
20260509114517 46 119 1.0 7.0 0.00 0.03 0.00 86 1008.2
20260509114035 45 113 3.0 7.0 0.00 0.03 0.00 86 1008.2
20260509113535 45 136 0.0 2.0 0.00 0.03 0.00 86 1008.1
20260509113040 45 136 0.0 5.0 0.00 0.03 0.00 86 1008.2